Погода Большерецкий

Погода Большерецкий : погода сейчас, прогноз погоды и архив. Всё, что Вы хотите узнать о погоде Большерецкий!

Поиск расширенной информации на нашем сайте:

Другие новости

Новости СМИ2

Главная страница сайта

Новости сайта

02.10.2013

Напоминаем, что на нашем новом сайте вы можете получить высокодетализированные прогнозы погоды по пунктам России, СНГ и мира (включающие важные для авиации метеовеличины, такие как направление и скорость ветра, видимость, явления погоды, количество и форма облачности, нижняя и верхняя граница облачности), а также ознакомиться с разнообразными материалами по авиационной метеорологии и подборкой полезных ссылок на эту тему.

Сайт Метеоцентр.Азия посвящён разработке технологий оптимизации авиаметеорологического обслуживания, включая проектирование и перспективное создание нескольких автоматизированных авиаметеорологических систем:
- система выпуска высокодетальных прогностических карт явлений погоды для нижнего воздушного пространства по России и ближнему зарубежью;
- система верификации прогнозов TAF (выпускаемых синоптиками официальных АМСГ РФ и ближнего зарубежья) и AUTOTAF (выпускаемых сайтом Метеоцентр.Азия) - выявление ошибок, онлайн-сопоставление с фактической погодой METAR, автоматическое внесение коррективов в прогнозы при резком отклонении фактической погоды от прогноза, подсчёт оправдываемости прогнозов по элементам и в целом;
- система обработки, анализа и отображения авиаметеорологической информации для применения провайдерами метеорологической информации.

Рекомендуем: Описание курсы английского языка по skype у нас на сайте.

Погода Большерецкий - сегодня

Время (UTC), дата Ветер
(°,м/с) 
Видим.   Явления Облачность Т
(°С)
Тd
(°С)
f(%) Тe
(°С)
Pmin
(гПа)
dP
(гПа)
Po
(мм)
O2
(г/м3)
Тmin Tmax R s Состояние
почвы
09 23.05.17 310 (СЗ) 6-10{12}  20000 м    10/10 600 м 
[Sc]
+2 +0.9 92 -1  1011.8  2.7  756  302    +5.4       
12 23.05.17 290 (З) 3{10}  20000 м    10/10 600 м 
[Sc]
+1.7 +0.7 93 1014.6  2.8  758  303           
15 23.05.17 290 (З) 20000 м    10/10 600 м 
[Sc]
+1.7 +1 95 +1  1015.5  0.9  759  304           
18 23.05.17 280 (З) 20000 м    6/6 600 м 
[Sc]
+0.2 -0.2 97 -2  1016.7  1.2  760  306           
00 24.05.17 260 (З) 20000 м    10/10 600 м 
[Sc]
+3.8 +1.1 83 +3  1018.1  0.1  761  302           
03 24.05.17 290 (З) 20000 м    9/9 600 м 
[Sc]
+6.6 +2.1 73 +5  1017.1  -0.9  760  299           
06 24.05.17 320 (СЗ) 20000 м    10/3 600 м верхняя 
[Cu hum|Cs]
+6.2 +2.3 76 +5  1016.5  -0.6  760  299           
12 24.05.17 340 (С) 0500 м  туман  ясно 
-0.5 -0.7 99 -3  1016.2  759  307           
15 24.05.17 340 (С) 0500 м  туман  ясно 
-2.1 -2.1 100 -4  1016.1  0.1  759  309           
18 24.05.17 340 (С) 20000 м  в посл. час туман  3/3 600 м 
[Sc]
-3.1 -3.1 100 -4  1016.5  0.3  760  310           
00 25.05.17 320 (СЗ) 20000 м    8/4 600 м верхняя 
[Cu hum|Ci]
+10.4 +3.5 62 +10  1017  -0.1  760  294           
03 25.05.17 300 (СЗ) 20000 м    3/3 600 м 
[Cu hum]
+10.7 +3 59 +10  1017.1  0.1  760  294           
06 25.05.17 330 (СЗ) 20000 м    3/3 600 м 
[Cu hum]
+9.7 +1 55 +8  1017.2  0.1  760  296           
09 25.05.17 320 (СЗ) 20000 м    ясно 
+6.7 +2.7 76 +6  1017.3  0.1  760  299    +11.7       
12 25.05.17 330 (СЗ) 20000 м    ясно 
+1.3 +0.8 96 1017.8  0.4  761  305           
15 25.05.17 010 (С) 20000 м    ясно 
-0.2 -0.3 99 -1  1017.3  -0.5  760  307           
18 25.05.17 050 (СВ) 20000 м    3/3 600 м 
[Sc]
+0.9 +0.7 99 -1  1015.5  -1.8  759  305           
00 26.05.17 200 (Ю) 20000 м    4/4 600 м 
[Sc]
+14.7 +3.5 47 +15  1012.7  -1.8  757  289           
03 26.05.17 270 (З) 20000 м    4/4 600 м 
[Sc]
+13.7 +2.7 47 +14  1011  -1.6  756  289           
06 26.05.17 300 (СЗ) 20000 м    9/9 600 м 
[Sc]
+10.1 +2.3 58 +10  1009.8  -1.3  755  293           
12 26.05.17 280 (З) 20000 м  слаб. ливневой дождь  10/10 600 м кучево-дожд. 
[Cb cap]
+4.4 +3.9 97 +4  1009.5  0.5  754  299           
15 26.05.17 320 (СЗ) 20000 м  слаб. ливневой дождь  10/10 600 м кучево-дожд. 
[Cb cap]
+3.9 +3.6 98 +3  1008.2  -1.3  753  299           
18 26.05.17 330 (СЗ) 20000 м  слаб. ливневой дождь  10/10 600 м кучево-дожд. 
[Cb cap]
+4.1 +4 99 +5  1007.3  -0.9  753  298           
03 27.05.17 300 (СЗ) 20000 м    9/9 600 м 
[Sc]
+7.2 +5.1 86 +5  1008.2  0.3  753  295           
06 27.05.17 270 (З) 20000 м    10/10 600 м 
[Sc]
+4.6 +3.9 95 +3  1008.6  0.3  754  298           
Время (UTC), дата Ветер
(°,м/с) 
Видим.   Явления Облачность Т
(°С)
Тd
(°С)
f(%) Тe
(°С)
Pmin
(гПа)
dP
(гПа)
Po
(мм)
O2
(г/м3)
Тmin Tmax R s Состояние
почвы

Для получения пояснительной информации подведите курсор к названию столбца.

ПОГОДА Большерецкий - архив

Всё, что Вы хотите узнать о погоде Большерецкий - удобно и подробно!

Выберите нужную дату (начиная с 1 января 2015* года) и нажмите кнопку "Найти".
Будут отображены архивные сводки погоды по пункту Большерецкий, начиная с указанной даты.


Отображать данные в формате CSV (для использования в таблицах Excel)


Внимание! Наш архив погоды предназначен исключительно для личного некоммерческого использования в познавательных целях. Если Вам необходимы официальные справки о состоянии погоды (для производственных, юридических, коммерческих и т.п. целей), обращайтесь в органы Росгидромета.

*Примечание: данная дата относится к архиву по метеостанциям СССР (Россия, СНГ, Балтия).
Архив по метеостанциям Зарубежной Европы и Азии (кроме Китая) хранится 10 дней, по другим регионам земного шара (Китай, Африка, Америка, Австралия, Океания) - 1 день.

Большерецкий - район местоположения метеостанции


Название, широта, долгота, высота метеостанции:
Большерецкий 52.9°ш. 156.6°д. 27 м над ур. моря [Российская Федерация]

Дополнительная информация

В oтличие oт бoльшинства пoгoдных сайтoв мы публикуем пoдрoбную метеoинфoрмацию в детальнoм прoфессиoнальнoм фoрмате.

Характеристики температуры и влажнoсти вoздуха измеряются на высoте 2 м в тени вдали oт зданий и деревьев.
Скoрoсть ветра измеряется на высoте 10 м (на урoвне рoста челoвека скoрoсть ветра ниже в 1.5-2 раза). Если метеoстанция нахoдится в гoрoде или в лесу, тo скoрoсть ветра занижена на 2-4 м/с пo сравнению с oткрытым местoм. Скoрoсть ветра над акватoриями крупных рек и oзёр, а также на вершинах хoлмoв на 2-5 м/с выше, чем в oбычных услoвиях.
Атмoсфернoе давление в разных тoчках местнoсти мoжет значительнo oтличаться oт давления на метеoстанции, в зависимoсти oт услoвий рельефа (при пoдъёме на 10 м давление пoнижается примернo на 1 мм рт.ст.).